[[{"header":{"parameterUnit":"m.s-1","parameterCategory":1,"la1":30.2991,"la2":30.254,"lo1":-89.0895,"lo2":-89.0444,"dy":0.0017,"dx":0.0017,"nx":28,"ny":28,"refTime":"2025-08-30T21:00:00:Z","depth":0,"parameterNumber":2,"parameterNumberName":"U-component_of_WINDS"},"data":[0,0,0,0,0,0,0,0,0,0,0,0,0,0,0,0,0,0,0,0,0,0,0,0,0,0,0,0,0,0,0,0,0,0,0,0,0,0,0,0,0,0,0,0,0,0,0,0,0,0,0,0,0,0,0,0,0,0,-0.9716,-0.9715,0,-0.963,-0.9629,-0.9628,-0.9652,-0.9653,-0.9655,-0.9657,-0.9568,-0.9564,-0.956,0,0,0,0,0,0,0,0,0,0,0,0,0,-0.9899,-0.9896,-0.9716,-0.9715,-0.9714,-0.963,-0.9629,-0.9628,-0.9651,-0.9653,-0.9656,-0.9658,-0.957,-0.9565,-0.956,0,0,0,0,0,0,0,0,0,0,0,0,0,-0.9817,-0.9894,-0.9716,-0.9715,-0.9715,-0.9631,-0.9629,-0.9628,-0.9651,-0.9653,-0.9656,-0.9659,-0.9571,-0.9565,-0.9559,-0.9471,0,0,-0.9541,-0.9539,0,0,0,0,0,0,0,0,-0.9822,-0.981,-0.9717,-0.9715,-0.9714,-0.9654,-0.9661,-0.9575,-0.965,-0.9675,-0.9657,-0.966,-0.9595,-0.9587,-0.9565,-0.9467,-0.9463,-0.9541,-0.9537,-0.9535,-0.9533,0,0,0,0,0,0,0,-0.9827,-0.9814,-0.9682,-0.9715,-0.9714,-0.9719,-0.971,-0.9645,-0.9621,-0.9673,-0.9675,-0.9664,-0.9595,-0.9571,-0.9563,-0.9462,-0.9541,-0.9536,-0.9532,-0.953,-0.9285,-0.9283,0,0,0,0,0,0,-0.9834,-0.9819,-0.9685,-0.968,-0.9775,-0.9714,-0.9704,-0.9671,-0.9622,-0.9617,-0.9662,-0.9666,-0.958,-0.957,-0.956,-0.9452,-0.9535,-0.9529,-0.9526,-0.9288,-0.9285,-0.9282,0,0,0,0,0,0,-0.9838,-0.9822,-0.9688,-0.9749,-0.9733,-0.9708,-0.9671,-0.9668,-0.9644,-0.9614,-0.961,-0.9642,-0.9581,-0.9569,-0.9493,-0.945,-0.9526,-0.9521,-0.9292,-0.9287,-0.9283,-0.9237,0,0,0,0,0,0,-0.9843,-0.9823,-0.9789,-0.9749,-0.973,-0.9622,-0.9668,-0.9664,-0.9634,-0.9638,-0.9594,-0.9589,-0.9582,-0.9502,-0.9487,-0.9443,-0.9516,-0.9296,-0.929,-0.9285,-0.9242,-0.9231,-0.9222,0,0,0,0,0,-0.9849,-0.978,-0.9788,-0.9771,-0.9687,-0.962,-0.9609,-0.9602,-0.963,-0.9596,-0.9576,-0.9591,-0.9457,-0.9494,-0.9477,-0.9431,-0.9298,-0.9291,-0.9285,-0.9246,-0.9233,-0.9222,0,0,0,0,0,0,-0.9816,-0.9774,-0.9783,-0.9698,-0.9662,-0.9624,-0.958,-0.9589,-0.9545,-0.955,-0.9544,-0.9534,-0.9456,-0.9436,-0.9478,-0.9342,-0.9382,-0.9372,-0.9358,-0.9345,-0.9335,-0.9341,-0.9511,0,0,0,0,0,-0.9799,-0.9748,-0.9714,-0.9642,-0.9624,-0.9605,-0.9576,-0.9574,-0.9537,-0.9522,-0.9497,-0.946,-0.941,-0.9377,-0.9329,-0.924,-0.923,-0.92,-0.919,-0.9182,-0.9173,-0.9123,-0.9109,-0.926,-0.926,-0.926,0,0,-0.9762,-0.9733,-0.9701,-0.9635,-0.9607,-0.9554,-0.9592,-0.9535,-0.9495,-0.9513,-0.9439,-0.942,-0.9379,-0.9295,-0.9258,-0.9276,-0.9129,-0.9174,-0.9167,-0.9162,-0.9115,-0.9101,-0.9088,-0.9256,-0.9256,-0.9257,0,0,-0.9668,-0.9642,-0.9579,-0.955,-0.9508,-0.9496,-0.948,-0.9441,-0.9428,-0.9355,-0.9367,-0.932,-0.9234,-0.9203,-0.9176,-0.9072,-0.9083,-0.9056,-0.9004,-0.8956,-0.8944,-0.8933,-0.8894,-0.8881,-0.9048,-0.9047,-0.9047,0,-0.9628,-0.9549,-0.9545,-0.9486,-0.9456,-0.947,-0.9406,-0.9378,-0.9322,-0.9301,-0.9323,-0.9215,-0.9188,-0.9098,-0.9072,-0.905,-0.9032,-0.906,-0.8946,-0.8935,-0.8925,-0.8888,-0.8874,-0.9044,-0.9045,-0.9045,-0.9045,0,-0.9501,-0.9446,-0.94,-0.9346,-0.9311,-0.9249,-0.9235,-0.9201,-0.9202,-0.9188,-0.9112,-0.9081,-0.9026,-0.9005,-0.9006,-0.8914,-0.8927,-0.8948,-0.8987,-0.8908,-0.8873,-0.8859,-0.904,-0.9041,-0.9042,-0.9043,0,0,-0.9383,-0.9327,-0.931,-0.9285,-0.9239,-0.9197,-0.9136,-0.9083,-0.9052,-0.9014,-0.8962,-0.8889,-0.8907,-0.8877,-0.8875,-0.8833,-0.875,-0.8858,-0.8857,-0.8838,-0.8646,-0.863,-0.8614,-0.8758,-0.8756,-0.8753,-0.8649,0,-0.9284,-0.9177,-0.9171,-0.9074,-0.9022,-0.9035,-0.8982,-0.8948,-0.8933,-0.8887,-0.8871,-0.8819,-0.8848,-0.8829,-0.8789,-0.8769,-0.8711,-0.8777,-0.8709,-0.8707,-0.8718,-0.8596,-0.8579,-0.8482,-0.8636,-0.8634,-0.8632,0,-0.9154,-0.9111,-0.9008,-0.897,-0.8948,-0.89,-0.8851,-0.8807,-0.8769,-0.8761,-0.8727,-0.8731,-0.8668,-0.8711,-0.8624,-0.8669,-0.8641,-0.8627,-0.8624,-0.8616,-0.8663,-0.8583,-0.8451,-0.8436,-0.8611,-0.8612,-0.8614,0,-0.9076,-0.8993,-0.892,-0.8899,-0.8852,-0.8818,-0.8797,-0.8762,-0.873,-0.8687,-0.8666,-0.8617,-0.8589,-0.8551,-0.8541,-0.8573,-0.8454,-0.8496,-0.8445,-0.8445,-0.8418,-0.842,-0.8278,-0.8402,-0.8403,-0.8403,-0.8403,0,-0.8965,-0.8902,-0.8884,-0.884,-0.8769,-0.8763,-0.8693,-0.8674,-0.8642,-0.8594,-0.8603,-0.8557,-0.8548,-0.85,-0.8493,-0.8421,-0.8409,-0.8401,-0.8399,-0.8399,-0.84,-0.838,-0.8386,-0.8399,-0.84,-0.8401,-0.8401,0,-0.8866,-0.8852,-0.8773,-0.8736,-0.8725,-0.8674,-0.8642,-0.8599,-0.8585,-0.8524,-0.8509,-0.8487,-0.8432,-0.8419,-0.8353,-0.8348,-0.8263,-0.8268,-0.8275,-0.8275,-0.8225,-0.8229,-0.8064,-0.8041,-0.8182,-0.8181,-0.8179,0,-0.8795,-0.8747,-0.8704,-0.8672,-0.8649,-0.8598,-0.8566,-0.8559,-0.8525,-0.8478,-0.844,-0.8385,-0.8341,-0.8252,-0.823,-0.818,-0.8183,-0.8129,-0.8176,-0.8177,-0.8181,-0.8184,-0.8178,-0.812,-0.8118,-0.8117,-0.8116,0,-0.8672,-0.8667,-0.862,-0.8571,-0.8532,-0.8492,-0.8455,-0.8428,-0.8416,-0.8377,-0.8321,-0.8286,-0.8219,-0.8164,-0.8114,-0.8092,-0.8101,-0.8102,-0.8087,-0.8086,-0.8091,-0.8086,-0.825,-0.8105,-0.8106,-0.8107,-0.8108,-0.8108,-0.8584,-0.8541,-0.8504,-0.8451,-0.8422,-0.8387,-0.8344,-0.8325,-0.8278,-0.8222,-0.8221,-0.8159,-0.8122,-0.8055,-0.803,-0.7981,-0.7998,-0.7977,-0.7971,-0.7966,-0.7961,-0.81,-0.7972,-0.7973,-0.7973,-0.7973,-0.7973,0,-0.8459,-0.8436,-0.8388,-0.8335,-0.8293,-0.8306,-0.8266,-0.823,-0.8175,-0.814,-0.8096,-0.8031,-0.7978,-0.7952,-0.79,-0.7866,-0.7869,-0.7852,-0.7854,-0.7849,-0.7949,-0.7967,-0.7851,-0.7851,-0.7851,-0.7851,-0.7851,-0.7851,-0.839,-0.8317,-0.8308,-0.8222,-0.8199,-0.8138,-0.8113,-0.8081,-0.8053,-0.7979,-0.7935,-0.7919,-0.7887,-0.7833,-0.7785,-0.7779,-0.7759,-0.774,-0.7736,-0.783,-0.7842,-0.7854,-0.787,-0.7736,-0.7736,-0.7639,-0.7638,-0.7638]},{"header":{"parameterUnit":"m.s-1","parameterCategory":1,"la1":30.2991,"la2":30.254,"lo1":-89.0895,"lo2":-89.0444,"dy":0.0017,"dx":0.0017,"nx":28,"ny":28,"refTime":"2025-08-30T21:00:00:Z","depth":0,"parameterNumber":3,"parameterNumberName":"V-component_of_WINDS"},"data":[0,0,0,0,0,0,0,0,0,0,0,0,0,0,0,0,0,0,0,0,0,0,0,0,0,0,0,0,0,0,0,0,0,0,0,0,0,0,0,0,0,0,0,0,0,0,0,0,0,0,0,0,0,0,0,0,0,0,-0.7548,-0.7547,0,-0.7486,-0.7485,-0.7485,-0.7532,-0.7534,-0.7537,-0.7539,-0.7471,-0.7467,-0.7463,0,0,0,0,0,0,0,0,0,0,0,0,0,-0.7703,-0.77,-0.7548,-0.7547,-0.7546,-0.7486,-0.7485,-0.7484,-0.7532,-0.7535,-0.7537,-0.7539,-0.7472,-0.7467,-0.7463,0,0,0,0,0,0,0,0,0,0,0,0,0,-0.7637,-0.7699,-0.7548,-0.7563,-0.7564,-0.7486,-0.7485,-0.7484,-0.7532,-0.7535,-0.7538,-0.7541,-0.7473,-0.7468,-0.7462,-0.7366,0,0,-0.7445,-0.7443,0,0,0,0,0,0,0,0,-0.7641,-0.7632,-0.7561,-0.7562,-0.7562,-0.752,-0.7515,-0.7444,-0.7531,-0.7543,-0.7539,-0.7542,-0.7484,-0.7478,-0.7459,-0.7362,-0.736,-0.7445,-0.7441,-0.7439,-0.7437,0,0,0,0,0,0,0,-0.7646,-0.7635,-0.7523,-0.756,-0.7561,-0.7571,-0.7565,-0.7502,-0.7497,-0.7543,-0.7546,-0.7538,-0.7485,-0.7465,-0.7458,-0.7359,-0.7445,-0.744,-0.7436,-0.7434,-0.718,-0.7177,0,0,0,0,0,0,-0.7649,-0.7638,-0.7525,-0.7521,-0.761,-0.7566,-0.756,-0.753,-0.7498,-0.7496,-0.7536,-0.7541,-0.7473,-0.7465,-0.7456,-0.7341,-0.7439,-0.7434,-0.743,-0.7184,-0.718,-0.7176,0,0,0,0,0,0,-0.7652,-0.7639,-0.7528,-0.7581,-0.7567,-0.756,-0.7527,-0.7528,-0.7507,-0.7493,-0.7492,-0.7516,-0.7475,-0.7464,-0.7388,-0.734,-0.7431,-0.7426,-0.7188,-0.7182,-0.7178,-0.7111,0,0,0,0,0,0,-0.7657,-0.764,-0.7603,-0.7579,-0.7564,-0.7462,-0.7524,-0.7524,-0.7498,-0.7504,-0.7474,-0.7472,-0.7476,-0.7396,-0.7383,-0.7334,-0.7422,-0.7192,-0.7185,-0.7179,-0.7117,-0.7104,-0.7093,0,0,0,0,0,-0.7662,-0.7586,-0.7601,-0.7587,-0.7519,-0.7459,-0.745,-0.7458,-0.7494,-0.7457,-0.7448,-0.7473,-0.7347,-0.7388,-0.7373,-0.7322,-0.7195,-0.7187,-0.718,-0.7123,-0.7107,-0.7093,0,0,0,0,0,0,-0.7601,-0.7583,-0.76,-0.7514,-0.7488,-0.7467,-0.7421,-0.7441,-0.7402,-0.7409,-0.742,-0.7413,-0.7334,-0.732,-0.7366,-0.7227,-0.7277,-0.7266,-0.7239,-0.7223,-0.7211,-0.7216,-0.7417,0,0,0,0,0,-0.7579,-0.7533,-0.7518,-0.7443,-0.743,-0.7427,-0.7401,-0.741,-0.7383,-0.7372,-0.7357,-0.7328,-0.7283,-0.7252,-0.7209,-0.7116,-0.711,-0.7073,-0.7061,-0.7051,-0.7041,-0.6991,-0.6975,-0.7151,-0.7151,-0.7151,0,0,-0.753,-0.7514,-0.7484,-0.7431,-0.7412,-0.7363,-0.7418,-0.7363,-0.7327,-0.7363,-0.7291,-0.728,-0.7249,-0.7164,-0.7126,-0.715,-0.6991,-0.7041,-0.7033,-0.7029,-0.6982,-0.6965,-0.695,-0.7146,-0.7147,-0.7148,0,0,-0.7416,-0.74,-0.7336,-0.7317,-0.7288,-0.7288,-0.7272,-0.7249,-0.7243,-0.7172,-0.7199,-0.7155,-0.7076,-0.7053,-0.7031,-0.6911,-0.6932,-0.6896,-0.6832,-0.6783,-0.677,-0.6757,-0.6715,-0.6699,-0.6887,-0.6887,-0.6887,0,-0.7359,-0.7288,-0.7301,-0.7245,-0.7221,-0.7254,-0.719,-0.7169,-0.7127,-0.7109,-0.7138,-0.7041,-0.7022,-0.6933,-0.6904,-0.6885,-0.6867,-0.6899,-0.6771,-0.6759,-0.6747,-0.6707,-0.6691,-0.6882,-0.6883,-0.6883,-0.6884,0,-0.7219,-0.7169,-0.7121,-0.7082,-0.7053,-0.6993,-0.6996,-0.6964,-0.6976,-0.6972,-0.6899,-0.6879,-0.6833,-0.6812,-0.6822,-0.6725,-0.6741,-0.677,-0.682,-0.6726,-0.6688,-0.6673,-0.6877,-0.6878,-0.6879,-0.688,0,0,-0.7063,-0.7035,-0.7017,-0.7,-0.6972,-0.6933,-0.6874,-0.6832,-0.6804,-0.6775,-0.6726,-0.6659,-0.6686,-0.6661,-0.6669,-0.6627,-0.6534,-0.6661,-0.6661,-0.6638,-0.6425,-0.6404,-0.6386,-0.6548,-0.6545,-0.6543,-0.6428,0,-0.6949,-0.6849,-0.686,-0.6764,-0.6719,-0.675,-0.67,-0.6676,-0.6671,-0.6631,-0.6625,-0.6578,-0.6617,-0.6603,-0.6562,-0.6554,-0.6491,-0.6562,-0.6502,-0.65,-0.6509,-0.6366,-0.6342,-0.6235,-0.6413,-0.6411,-0.6409,0,-0.6801,-0.6769,-0.6669,-0.665,-0.6631,-0.6585,-0.6548,-0.6509,-0.6483,-0.6483,-0.6456,-0.6472,-0.6412,-0.6465,-0.6383,-0.6431,-0.6408,-0.64,-0.6396,-0.639,-0.6448,-0.6356,-0.6201,-0.6184,-0.6386,-0.6388,-0.6389,0,-0.6698,-0.6629,-0.6562,-0.6546,-0.6522,-0.6489,-0.6477,-0.6454,-0.6428,-0.6395,-0.6378,-0.6337,-0.6315,-0.6283,-0.6287,-0.6325,-0.6204,-0.6257,-0.6201,-0.6201,-0.6174,-0.6175,-0.6012,-0.6159,-0.6159,-0.6159,-0.616,0,-0.6569,-0.6506,-0.6515,-0.6473,-0.6405,-0.6418,-0.6349,-0.6341,-0.6321,-0.6277,-0.6302,-0.626,-0.6269,-0.6227,-0.623,-0.6162,-0.6151,-0.6149,-0.615,-0.6147,-0.6147,-0.6131,-0.6138,-0.6155,-0.6156,-0.6157,-0.6158,0,-0.6441,-0.6445,-0.6373,-0.6357,-0.6351,-0.6301,-0.6287,-0.6247,-0.6245,-0.619,-0.6177,-0.6173,-0.6126,-0.6128,-0.6073,-0.6075,-0.5992,-0.6002,-0.6001,-0.6003,-0.5948,-0.5953,-0.5768,-0.5744,-0.5906,-0.5905,-0.5904,0,-0.6358,-0.6312,-0.6291,-0.6265,-0.6251,-0.6208,-0.6182,-0.6194,-0.6166,-0.6134,-0.6098,-0.6053,-0.6018,-0.594,-0.5932,-0.589,-0.5899,-0.5838,-0.5893,-0.5891,-0.5898,-0.5901,-0.5897,-0.5826,-0.5824,-0.5823,-0.5822,0,-0.621,-0.6215,-0.6178,-0.6142,-0.6111,-0.6083,-0.6057,-0.6033,-0.6042,-0.6009,-0.5962,-0.5935,-0.588,-0.5835,-0.5796,-0.5783,-0.5803,-0.5805,-0.579,-0.5785,-0.5787,-0.5785,-0.5971,-0.5808,-0.581,-0.5811,-0.5811,-0.5812,-0.6103,-0.6063,-0.6043,-0.6002,-0.5984,-0.596,-0.5922,-0.5917,-0.5878,-0.5836,-0.5844,-0.5791,-0.5768,-0.5718,-0.5701,-0.5659,-0.5681,-0.5659,-0.5653,-0.5648,-0.5642,-0.5794,-0.5652,-0.5652,-0.5652,-0.5653,-0.5653,0,-0.5956,-0.5946,-0.5907,-0.5872,-0.5839,-0.5864,-0.5837,-0.5807,-0.5761,-0.5738,-0.5704,-0.565,-0.5607,-0.5596,-0.5555,-0.5523,-0.5532,-0.5512,-0.5514,-0.5511,-0.5624,-0.5642,-0.5506,-0.5506,-0.5506,-0.5506,-0.5506,-0.5506,-0.5876,-0.5811,-0.5814,-0.574,-0.573,-0.568,-0.5662,-0.564,-0.5622,-0.5561,-0.5527,-0.5521,-0.5503,-0.5461,-0.5422,-0.542,-0.5404,-0.538,-0.5382,-0.5488,-0.5503,-0.5517,-0.5533,-0.5377,-0.5376,-0.5272,-0.5271,-0.527]}]]